STARLINK-5445, 54790

Orbit data source: Space-Track

STARLINK-5445, 54790 is a payload satellite owned by SpaceX/Seattle (US) in LEO that was launched on Sat, 17 Dec 2022 UTC via an FALCON 9 launch vehicle from the Air Force Eastern Test Range (AFETR). Payload-class satellites include a variety of spacecraft equipped with specific instruments for various scientific and technological missions. These include communications satellites like Starlink; space stations such as the ISS; scientific satellites like the Hubble; Earth observation satellites from companies like Planet Labs, Umbra, and HawkEye 360; GPS; miniature CubeSats for education and research; and military/defense satellites.

Loading next visibility...
Identifier
54790, 2022-175AJ
Orbit
LEO
Last TLE update
14 hours ago
Origin
Manufacturer
SpaceX/Seattle
Mission
Operational Commercial Communications
Bus & Motor
STARLINK, Unknown motor
Mass
305 kg wet, ~290 kg dry
Launch date (UTC)
2022-12-17 (2 years ago)
Launch vehicle
FALCON 9
Launch site
Air Force Eastern Test Range (AFETR)
Object type
Payload
Rocket body
Debris
Shape & HBR
Box + 1 Pan, 8.86 m
Radar Cross Section
13.562 m², Large (>1 m²)

Expand to show TLE details & history

TLE from 14 hours ago
0 STARLINK-5445
1 54790U 22175AJ  25130.71509398  .00000640  00000-0  58291-4 0  9994
2 54790  53.2176 309.0129 0001195  91.3773 268.7356 15.08837057134392
Epoch: 2025-05-10T17:09Z
Definitive object data (Epoch: 2025-05-10T17:09:44.119Z)
Latitude
-0.00005°
Longitude
-177.17387°
Altitude
540.668 km
Speed
7.593 km/s
True Right ascension
20h 36m 03s
True Declination
0° 00' 00"
Sunlit
Object was in daylight at TLE epoch
Visualization TLE readout
Latitude
-11.86693°
Longitude
9.27439°
Altitude
543.107 km
Speed
7.591 km/s
Apparent Right ascension
06h 38m 06s
Apparent Declination
-33° 18' 37"
Sunlit
Object is in daylight
Visualization observer readout
Local Sidereal Time
15:01:08
Azimuth
260.964° W
Elevation
-46.63°
Doppler factor
1
Orbital elements
Apogee altitude
540.824 km
Perigee altitude
539.171 km
Semi-major axis
6,918.134 km
Eccentricity
0.0001195
Inclination
53.2176°
RAAN
309.0129°
Arg. of periapsis
91.3773°
True anomaly
268.72191°
Mean anomaly
268.7356°
Eccentric anomaly
268.72875°
Mean motion
3.7719 °/min
BSTAR
0.000058291
Orbital period
95.44 mins
Loading maneuver chart data...
Loading SW <> Apogee altitude chart data...
Loading historical data...
Loading historical data...
Loading historical data...
Loading historical data...
Loading historical data...
Loading historical data...
Loading historical data...

STARLINK-5445 Visibility forecast

Observer location: undefined°, undefined°

Span
Click to sort rows by Start time (UTC) header in descending order
Start Az.
Max El. time (UTC)
Max El. Az.
Max El.
End time (UTC)
End Az.
7 mins2025-05-11 13:59:22.382Z202.936° SW2025-05-11 14:02:22.382Z141.966° SSE34.917°2025-05-11 14:06:22.382Z61.474° ENE
5 mins2025-05-11 15:40:22.382Z290.971° WNW2025-05-11 15:42:22.382Z342.617° N26.216°2025-05-11 15:45:22.382Z32.515° NE
5 mins2025-05-11 20:41:22.382Z335.259° NNW2025-05-11 20:43:22.382Z37.586° NE35.205°2025-05-11 20:46:22.382Z103.548° ESE
5 mins2025-05-11 22:20:22.382Z273.133° WNW2025-05-11 22:22:22.382Z232.363° WSW23.196°2025-05-11 22:25:22.382Z177.901° S
|